Home > Weather > Himeji > Past weeks

Flag for Japan Past Weather in Himeji, Japan — Yesterday and Last 2 Weeks

Now
75 °F

Partly cloudy.


Feels Like: 77 °F
Forecast: 74 / 83 °F
Wind: 7 mph from East

Location: Osaka International Airport

Current Time: Jul 24, 2016 at 6:17:49 AM

Latest Report: Jul 24, 2016 at 5:00 AM


Visibility: N/A

Pressure: 29.92 "Hg

Humidity: 69%

Dew Point: 64 °F

Location of HimejiLocation

Past Weather in Himeji — Graph

°F

Himeji Temperature Yesterday

Maximum temperature yesterday: 91 °F (at 2:00 PM)
Minimum temperature yesterday: 75 °F (at 5:00 AM)
Average temperature yesterday: 83 °F

High & Low Weather Summary for the Past Weeks

 TemperatureHumidityPressure
High93 °F (Jul 22, 4:00 PM)100% (Jul 9, 6:00 AM)29.92 "Hg (Jul 9, 6:00 AM)
Low72 °F (Jul 9, 5:00 AM)34% (Jul 22, 3:00 PM)29.42 "Hg (Jul 14, 2:00 PM)
Average82 °F67%29.71 "Hg
* Reported Jul 9 5:00 AM — Jul 24 5:00 AM, Himeji, Weather by CustomWeather, © 2016

Note: Actual official high and low records may vary slightly from our data, if they occured in-between our weather recording intervals... More about our weather records

Advertising

Himeji Weather History for the Previous 24 Hours

Scroll right to see more
 ConditionsComfort  
Time TempWeatherWind HumidityBarometerVisibility
5:00 AM
Sun, Jul 24
75 °FPartly cloudy.7 mph69%29.92 "HgN/A
8:00 PM
Sat, Jul 23
81 °FPassing clouds.5 mph70%29.89 "HgN/A
7:00 PM81 °FPartly sunny.6 mph66%29.86 "HgN/A
6:00 PM84 °FPartly sunny.7 mph55%29.83 "HgN/A
5:00 PM88 °FPartly sunny.10 mph46%29.83 "HgN/A
4:00 PM90 °FPartly sunny.9 mph38%29.83 "HgN/A
3:00 PM91 °FBroken clouds.6 mph38%29.83 "HgN/A
2:00 PM91 °FPartly sunny.5 mph41%29.83 "HgN/A
1:00 PM86 °FPartly sunny.2 mph52%29.86 "HgN/A
12:00 PM84 °FPartly sunny.8 mph51%29.86 "HgN/A
11:00 AM86 °FPartly sunny.7 mph52%29.89 "HgN/A
10:00 AM84 °FPartly sunny.6 mph51%29.89 "HgN/A
9:00 AM81 °FPartly sunny.8 mph58%29.89 "HgN/A
8:00 AM79 °FPartly sunny.9 mph61%29.89 "HgN/A
7:00 AM79 °FPartly sunny.12 mph61%29.89 "HgN/A
6:00 AM75 °FPartly sunny.9 mph69%29.86 "HgN/A
Weather by CustomWeather, © 2016

See weather overviewHow to use our weather pages